Home   Weather   Virudhunagar   Past weeks

Flag for India Past Weather in Virudhunagar, Tamil Nadu, India — Yesterday and Last 2 Weeks

Now
84 °F

Partly cloudy.


Feels Like: 88 °F
Forecast: 79 / 96 °F
Wind: 9 mph from West

Location: Tiruchchirapalli

Current Time: Aug 20, 2017 at 9:16:32 pm

Latest Report: Aug 20, 2017 at 8:30 pm


Visibility: 4 mi

Pressure: 29.68 "Hg

Humidity: 62%

Dew Point: 70 °F

Location of VirudhunagarLocation

Past Weather in Virudhunagar — Graph

°F

Virudhunagar Temperature Yesterday

Maximum temperature yesterday: 91 °F (at 12:30 pm)
Minimum temperature yesterday: 79 °F (at 12:00 am)
Average temperature yesterday: 85 °F

High & Low Weather Summary for the Past Weeks

 TemperatureHumidityPressure
High100 °F (Aug 6, 3:00 pm)100% (Aug 9, 1:30 am)29.89 "Hg (Aug 9, 1:30 am)
Low73 °F (Aug 14, 8:30 pm)35% (Aug 7, 3:00 pm)29.53 "Hg (Aug 6, 4:00 pm)
Average86 °F68%29.71 "Hg
* Reported Aug 5 7:30 pm — Aug 20 8:00 pm, Virudhunagar. Weather by CustomWeather, © 2017

Note: Actual official high and low records may vary slightly from our data, if they occured in-between our weather recording intervals... More about our weather records

Advertising

Virudhunagar Weather History for the Previous 24 Hours

Scroll right to see more
 ConditionsComfort  
Time TempWeatherWind HumidityBarometerVisibility
8:00 pm
Sun, Aug 20
84 °FPartly cloudy.10 mph62%29.65 "Hg4 mi
7:30 pm84 °FPartly cloudy.12 mph66%29.65 "Hg4 mi
7:00 pm84 °FDrizzle. Broken clouds.14 mph70%29.62 "Hg4 mi
6:30 pm82 °FDrizzle. Broken clouds.9 mph74%29.62 "Hg4 mi
6:00 pm82 °FBroken clouds.12 mph74%29.62 "Hg4 mi
5:30 pm82 °FBroken clouds.5 mph74%29.62 "Hg4 mi
5:00 pm84 °FBroken clouds.7 mph70%29.59 "Hg4 mi
4:30 pm84 °FBroken clouds.7 mph70%29.59 "Hg4 mi
4:00 pm86 °FBroken clouds.3 mph70%29.59 "Hg4 mi
3:30 pm86 °FBroken clouds.7 mph70%29.59 "Hg4 mi
3:00 pm90 °FDrizzle. Broken clouds.6 mph63%29.59 "Hg3 mi
2:30 pm95 °FDrizzle. Broken clouds.13 mph50%29.59 "Hg4 mi
2:00 pm93 °FScattered clouds.9 mph47%29.59 "Hg5 mi
1:30 pm93 °FScattered clouds.13 mph47%29.62 "Hg5 mi
1:00 pm93 °FScattered clouds.13 mph47%29.65 "Hg5 mi
12:30 pm91 °FScattered clouds.9 mph49%29.65 "Hg5 mi
12:00 pm91 °FScattered clouds.9 mph49%29.65 "Hg5 mi
11:30 am90 °FScattered clouds.13 mph55%29.68 "Hg5 mi
11:00 am88 °FScattered clouds.6 mph55%29.68 "Hg5 mi
10:30 am86 °FScattered clouds.10 mph62%29.68 "Hg5 mi
10:00 am86 °FScattered clouds.9 mph59%29.71 "Hg5 mi
9:30 am84 °FScattered clouds.7 mph62%29.71 "Hg5 mi
9:00 am84 °FScattered clouds.8 mph66%29.71 "Hg5 mi
8:30 am82 °FScattered clouds.3 mph70%29.71 "Hg5 mi
8:00 am82 °FScattered clouds.No wind66%29.71 "Hg5 mi
7:30 am82 °FPartly sunny.No wind66%29.68 "Hg4 mi
7:00 am82 °FPartly sunny.No wind66%29.68 "Hg4 mi
6:30 am81 °FPassing clouds.No wind70%29.68 "Hg4 mi
6:00 am81 °FPassing clouds.7 mph74%29.65 "Hg4 mi
5:30 am82 °FPassing clouds.6 mph66%29.65 "Hg4 mi
5:00 am82 °FPassing clouds.7 mph66%29.62 "Hg4 mi
4:30 am82 °FPassing clouds.6 mph66%29.62 "Hg4 mi
4:00 am82 °FPassing clouds.6 mph66%29.62 "Hg4 mi
3:30 am82 °FPassing clouds.10 mph66%29.62 "Hg4 mi
3:00 am82 °FPassing clouds.6 mph66%29.62 "Hg4 mi
2:30 am82 °FPassing clouds.8 mph66%29.65 "Hg4 mi
2:00 am82 °FPartly cloudy.14 mph66%29.65 "Hg4 mi
1:30 am82 °FPartly cloudy.6 mph66%29.68 "Hg4 mi
1:00 am82 °FPartly cloudy.6 mph66%29.68 "Hg4 mi
12:30 am82 °FPartly cloudy.6 mph66%29.71 "Hg4 mi
12:00 am82 °FPartly cloudy.12 mph66%29.71 "Hg4 mi
11:30 pm
Sat, Aug 19
84 °FPartly cloudy.7 mph62%29.71 "Hg4 mi
11:00 pm82 °FPartly cloudy.8 mph74%29.71 "Hg4 mi
10:30 pm82 °FPartly cloudy.6 mph74%29.71 "Hg4 mi
10:00 pm82 °FPartly cloudy.7 mph74%29.71 "Hg4 mi
9:30 pm84 °FPartly cloudy.5 mph66%29.71 "Hg4 mi
9:00 pm84 °FPartly cloudy.7 mph66%29.68 "Hg4 mi
Weather by CustomWeather, © 2017

See weather overviewHow to use our weather pages